NORTHEAST SUFFOLK  -  Coastal Flood Statement Coastal Flood Statement     Rip Current Statement Rip Current Statement     Rip Current Statement Rip Current Statement        NORTHWEST SUFFOLK  -  Coastal Flood Statement Coastal Flood Statement     Rip Current Statement Rip Current Statement     Rip Current Statement Rip Current Statement        SOUTHEAST SUFFOLK  -  Coastal Flood Statement Coastal Flood Statement     Rip Current Statement Rip Current Statement     Rip Current Statement Rip Current Statement        SOUTHWEST SUFFOLK  -  Coastal Flood Statement Coastal Flood Statement     Rip Current Statement Rip Current Statement     Rip Current Statement Rip Current Statement        NORTHERN NASSAU  -  Rip Current Statement Rip Current Statement        NORTHERN QUEENS  -  Rip Current Statement Rip Current Statement        SOUTHERN NASSAU  -  Rip Current Statement Rip Current Statement        SOUTHERN QUEENS  -  Rip Current Statement Rip Current Statement      

Active alerts

Northwest Suffolk
  Details for Northwest Suffolk Coastal Flood Statement  +2 additional alerts
Southwest Suffolk
  Details for Southwest Suffolk Coastal Flood Statement  +2 additional alerts
Northeast Suffolk
  Details for Northeast Suffolk Coastal Flood Statement  +2 additional alerts
Southeast Suffolk
  Details for Southeast Suffolk Coastal Flood Statement  +2 additional alerts
Northern Queens
  Details for Northern Queens Rip Current Statement
Southern Queens
  Details for Southern Queens Rip Current Statement
Northern Nassau
  Details for Northern Nassau Rip Current Statement
Southern Nassau
  Details for Southern Nassau Rip Current Statement


WXM80 ListenWXM80 Stop

You find our weather info also at:

UK Metoffice

WeatherCloud

Weather Underground

Northeastern Weather Network

AWEKAS

Citizen Weather Observer Program (CWOP)

HAMweather, WeatherForYou, PWS Weather


Weather Underground History page Text

Daily Summary for May 21, 2017 Units:  English    Metric   Both
« Previous Day
Next Day »
Daily Weekly Monthly Yearly Custom
  High: Low: Average:
Temperature: 70.9 °F 46.1 °F 58.3 °F
Dew Point: 57.3 °F 37.0 °F 45.6 °F
Humidity: 96 % 30 % 66 %
Wind Speed: 8.9 mph 0.0 mph 1.5 mph
Wind Gust: 13.8 mph - -
Wind:- - ESE
Pressure: 30.36 in 30.23 in -
Precipitation: 0.00 in    
Historical Graphs
 
 
Tabular Data for May 21, 2017
Time Temperature Dew Point Pressure Wind Wind Speed Wind Gust Humidity Rainfall Rate (Hourly)
00:03 52.0 °F 46.0 °F 30.31 in Calm   1.2 mph 80 % 0.00 in
00:08 51.9 °F 45.9 °F 30.31 in Calm     80 % 0.00 in
00:13 51.8 °F 46.2 °F 30.30 in Calm     81 % 0.00 in
00:18 51.7 °F 45.7 °F 30.31 in Calm     80 % 0.00 in
00:23 51.6 °F 45.6 °F 30.30 in Calm     80 % 0.00 in
00:28 51.5 °F 45.5 °F 30.30 in Calm     80 % 0.00 in
00:33 51.3 °F 45.7 °F 30.30 in Calm   1.2 mph 81 % 0.00 in
00:38 51.2 °F 45.6 °F 30.30 in Calm     81 % 0.00 in
00:43 51.1 °F 45.5 °F 30.31 in Calm     81 % 0.00 in
00:48 51.0 °F 45.4 °F 30.31 in Calm     81 % 0.00 in
00:53 50.9 °F 45.6 °F 30.31 in Calm     82 % 0.00 in
00:58 50.8 °F 45.5 °F 30.31 in Calm     82 % 0.00 in
01:04 50.6 °F 45.6 °F 30.31 in Calm     83 % 0.00 in
01:09 50.5 °F 45.5 °F 30.31 in Calm     83 % 0.00 in
01:14 50.5 °F 45.5 °F 30.31 in Calm     83 % 0.00 in
01:19 50.4 °F 45.4 °F 30.30 in Calm     83 % 0.00 in
01:24 50.3 °F 45.6 °F 30.30 in Calm     84 % 0.00 in
01:29 50.2 °F 45.6 °F 30.30 in Calm     84 % 0.00 in
01:34 50.1 °F 45.5 °F 30.30 in Calm     84 % 0.00 in
01:39 50.1 °F 45.5 °F 30.29 in Calm     84 % 0.00 in
01:44 50.0 °F 45.7 °F 30.29 in Calm   1.2 mph 85 % 0.00 in
01:49 49.9 °F 45.6 °F 30.29 in Calm     85 % 0.00 in
01:54 49.8 °F 45.5 °F 30.29 in Calm     85 % 0.00 in
01:59 49.7 °F 45.4 °F 30.29 in Calm     85 % 0.00 in
02:04 49.7 °F 45.4 °F 30.28 in Calm     85 % 0.00 in
02:09 49.6 °F 45.3 °F 30.29 in Calm     85 % 0.00 in
02:14 49.5 °F 45.2 °F 30.29 in Calm     85 % 0.00 in
02:19 49.4 °F 45.1 °F 30.29 in Calm     85 % 0.00 in
02:24 49.4 °F 45.1 °F 30.29 in Calm     85 % 0.00 in
02:29 49.3 °F 45.3 °F 30.28 in Calm     86 % 0.00 in
02:34 49.2 °F 45.2 °F 30.29 in Calm     86 % 0.00 in
02:40 49.1 °F 45.1 °F 30.29 in Calm     86 % 0.00 in
02:45 49.0 °F 45.0 °F 30.29 in Calm     86 % 0.00 in
02:50 48.9 °F 44.9 °F 30.29 in Calm     86 % 0.00 in
02:55 48.8 °F 44.8 °F 30.29 in Calm     86 % 0.00 in
03:00 48.8 °F 44.8 °F 30.29 in Calm     86 % 0.00 in
03:05 48.7 °F 44.7 °F 30.29 in Calm     86 % 0.00 in
03:10 48.6 °F 44.6 °F 30.29 in Calm     86 % 0.00 in
03:15 48.5 °F 44.8 °F 30.29 in Calm     87 % 0.00 in
03:20 48.4 °F 44.7 °F 30.30 in Calm     87 % 0.00 in
03:25 48.3 °F 44.6 °F 30.30 in Calm     87 % 0.00 in
03:30 48.2 °F 44.5 °F 30.29 in Calm   1.2 mph 87 % 0.00 in
03:35 48.2 °F 44.5 °F 30.29 in Calm     87 % 0.00 in
03:40 48.1 °F 44.7 °F 30.29 in Calm     88 % 0.00 in
03:45 48.1 °F 44.7 °F 30.30 in Calm     88 % 0.00 in
03:50 47.9 °F 44.5 °F 30.30 in Calm     88 % 0.00 in
03:55 47.9 °F 44.2 °F 30.30 in Calm     87 % 0.00 in
04:00 47.8 °F 44.1 °F 30.30 in Calm     87 % 0.00 in
04:05 47.7 °F 44.3 °F 30.30 in Calm     88 % 0.00 in
04:10 47.6 °F 44.2 °F 30.30 in Calm     88 % 0.00 in
04:15 47.5 °F 44.1 °F 30.30 in Calm     88 % 0.00 in
04:20 47.4 °F 44.0 °F 30.30 in Calm     88 % 0.00 in
04:25 47.3 °F 43.9 °F 30.30 in Calm     88 % 0.00 in
04:30 47.2 °F 43.8 °F 30.30 in Calm     88 % 0.00 in
04:35 47.1 °F 43.7 °F 30.30 in Calm     88 % 0.00 in
04:40 47.0 °F 43.9 °F 30.30 in Calm     89 % 0.00 in
04:45 46.9 °F 43.8 °F 30.30 in Calm     89 % 0.00 in
04:50 46.9 °F 43.8 °F 30.30 in Calm     89 % 0.00 in
04:55 46.8 °F 43.7 °F 30.31 in Calm     89 % 0.00 in
05:00 46.7 °F 43.9 °F 30.31 in Calm     90 % 0.00 in
05:05 46.7 °F 43.9 °F 30.31 in Calm     90 % 0.00 in
05:10 46.6 °F 43.5 °F 30.32 in Calm     89 % 0.00 in
05:15 46.5 °F 43.7 °F 30.31 in Calm     90 % 0.00 in
05:20 46.4 °F 43.6 °F 30.32 in Calm     90 % 0.00 in
05:25 46.4 °F 43.6 °F 30.32 in Calm     90 % 0.00 in
05:30 46.3 °F 43.5 °F 30.33 in Calm     90 % 0.00 in
05:35 46.2 °F 43.4 °F 30.33 in Calm     90 % 0.00 in
05:41 46.2 °F 43.4 °F 30.32 in Calm     90 % 0.00 in
05:46 46.1 °F 43.3 °F 30.32 in Calm     90 % 0.00 in
05:51 46.1 °F 43.3 °F 30.32 in Calm     90 % 0.00 in
05:56 46.1 °F 43.6 °F 30.32 in Calm     91 % 0.00 in
06:01 46.2 °F 43.7 °F 30.32 in Calm     91 % 0.00 in
06:06 46.2 °F 43.7 °F 30.32 in Calm     91 % 0.00 in
06:11 46.3 °F 44.1 °F 30.32 in Calm     92 % 0.00 in
06:16 46.4 °F 44.2 °F 30.32 in Calm   1.0 mph 92 % 0.00 in
06:21 46.6 °F 44.4 °F 30.33 in Calm     92 % 0.00 in
06:26 46.8 °F 44.9 °F 30.33 in Calm   1.0 mph 93 % 0.00 in
06:31 47.0 °F 45.1 °F 30.34 in Calm     93 % 0.00 in
06:36 47.4 °F 45.8 °F 30.35 in Calm     94 % 0.00 in
06:41 47.7 °F 46.1 °F 30.35 in Calm     94 % 0.00 in
06:46 48.0 °F 46.4 °F 30.35 in Calm     94 % 0.00 in
06:51 48.4 °F 47.0 °F 30.35 in Calm     95 % 0.00 in
06:56 48.9 °F 47.5 °F 30.35 in Calm     95 % 0.00 in
07:01 49.6 °F 48.2 °F 30.34 in Calm     95 % 0.00 in
07:06 50.3 °F 49.2 °F 30.35 in Calm   1.0 mph 96 % 0.00 in
07:11 51.1 °F 50.0 °F 30.35 in Calm     96 % 0.00 in
07:16 52.1 °F 51.0 °F 30.35 in Calm     96 % 0.00 in
07:21 52.7 °F 51.5 °F 30.34 in Calm   1.0 mph 96 % 0.00 in
07:26 53.2 °F 52.1 °F 30.34 in Calm   2.0 mph 96 % 0.00 in
07:31 54.0 °F 52.6 °F 30.33 in Calm   1.0 mph 95 % 0.00 in
07:36 54.8 °F 53.1 °F 30.34 in NW 2.0 mph 3.0 mph 94 % 0.00 in
07:41 55.6 °F 53.3 °F 30.35 in Calm   2.3 mph 92 % 0.00 in
07:46 56.2 °F 53.6 °F 30.34 in ENE 0.5 mph 2.0 mph 91 % 0.00 in
07:51 56.5 °F 53.0 °F 30.35 in NE 1.3 mph 3.0 mph 88 % 0.00 in
07:56 56.9 °F 53.1 °F 30.34 in NE 0.1 mph 1.2 mph 87 % 0.00 in
08:01 57.4 °F 53.6 °F 30.34 in NE 0.2 mph 1.2 mph 87 % 0.00 in
08:06 57.8 °F 53.3 °F 30.33 in Calm     85 % 0.00 in
08:11 58.2 °F 53.1 °F 30.34 in NE 0.3 mph 1.2 mph 83 % 0.00 in
08:16 58.6 °F 53.1 °F 30.33 in NE 0.3 mph 1.2 mph 82 % 0.00 in
08:21 58.9 °F 53.1 °F 30.34 in ENE 2.7 mph 5.0 mph 81 % 0.00 in
08:26 59.1 °F 53.3 °F 30.34 in NE 1.5 mph 3.5 mph 81 % 0.00 in
08:31 59.3 °F 53.1 °F 30.34 in NE 2.6 mph 6.9 mph 80 % 0.00 in
08:33 59.3 °F 53.1 °F 30.34 in NE 0.5 mph 1.2 mph 80 % 0.00 in
08:38 59.4 °F 53.2 °F 30.34 in NE 0.9 mph 4.0 mph 80 % 0.00 in
08:43 59.3 °F 52.8 °F 30.34 in NE 2.8 mph 5.0 mph 79 % 0.00 in
08:48 59.2 °F 52.7 °F 30.34 in NE 4.0 mph 6.9 mph 79 % 0.00 in
08:53 59.1 °F 52.2 °F 30.34 in ENE 3.1 mph 3.5 mph 78 % 0.00 in
08:58 59.0 °F 51.1 °F 30.35 in ENE 1.3 mph 4.6 mph 75 % 0.00 in
09:03 59.1 °F 51.2 °F 30.35 in ENE 3.0 mph 4.6 mph 75 % 0.00 in
09:08 59.1 °F 51.5 °F 30.35 in North 2.0 mph 3.5 mph 76 % 0.00 in
09:14 59.4 °F 51.5 °F 30.35 in ENE 2.4 mph 3.5 mph 75 % 0.00 in
09:19 59.6 °F 50.2 °F 30.35 in ENE 2.1 mph 4.6 mph 71 % 0.00 in
09:24 59.7 °F 50.7 °F 30.35 in NE 2.2 mph 3.5 mph 72 % 0.00 in
09:29 59.9 °F 50.8 °F 30.35 in ENE 3.1 mph 7.0 mph 72 % 0.00 in
09:34 60.1 °F 51.4 °F 30.35 in NNE 2.5 mph 4.6 mph 73 % 0.00 in
09:39 60.7 °F 52.4 °F 30.35 in NE 2.3 mph 5.8 mph 74 % 0.00 in
09:44 61.3 °F 52.6 °F 30.35 in NE 3.8 mph 4.6 mph 73 % 0.00 in
09:49 61.6 °F 52.5 °F 30.36 in NE 2.8 mph 4.6 mph 72 % 0.00 in
09:54 62.0 °F 52.1 °F 30.36 in NE 1.7 mph 3.5 mph 70 % 0.00 in
09:59 62.6 °F 53.1 °F 30.36 in NE 1.5 mph 4.6 mph 71 % 0.00 in
10:04 63.3 °F 53.7 °F 30.36 in ENE 3.0 mph 5.8 mph 71 % 0.00 in
10:09 63.8 °F 53.0 °F 30.35 in ENE 4.0 mph 7.0 mph 68 % 0.00 in
10:14 63.6 °F 54.0 °F 30.35 in ENE 3.1 mph 5.0 mph 71 % 0.00 in
10:19 63.7 °F 53.7 °F 30.35 in NE 3.5 mph 5.8 mph 70 % 0.00 in
10:24 64.1 °F 54.1 °F 30.35 in ENE 3.4 mph 8.1 mph 70 % 0.00 in
10:29 64.7 °F 54.7 °F 30.35 in ENE 3.8 mph 8.1 mph 70 % 0.00 in
10:35 65.3 °F 54.1 °F 30.35 in ENE 4.0 mph 7.0 mph 67 % 0.00 in
10:40 65.2 °F 53.6 °F 30.35 in ENE 4.1 mph 6.9 mph 66 % 0.00 in
10:45 65.3 °F 54.1 °F 30.35 in ENE 3.6 mph 8.1 mph 67 % 0.00 in
10:50 65.2 °F 53.6 °F 30.35 in ENE 2.4 mph 6.9 mph 66 % 0.00 in
10:55 65.3 °F 54.1 °F 30.35 in ENE 4.8 mph 8.1 mph 67 % 0.00 in
11:00 65.8 °F 56.1 °F 30.35 in ENE 1.8 mph 3.5 mph 71 % 0.00 in
11:05 66.1 °F 54.0 °F 30.35 in ENE 2.4 mph 6.9 mph 65 % 0.00 in
11:10 66.3 °F 54.2 °F 30.35 in ENE 2.5 mph 5.8 mph 65 % 0.00 in
11:11 66.3 °F 54.2 °F 30.35 in ENE 2.2 mph 5.8 mph 65 % 0.00 in
11:16 66.8 °F 55.5 °F 30.36 in ENE 4.8 mph 10.4 mph 67 % 0.00 in
11:21 66.5 °F 53.9 °F 30.35 in ENE 5.9 mph 11.5 mph 64 % 0.00 in
11:26 65.8 °F 54.5 °F 30.35 in NE 3.2 mph 8.1 mph 67 % 0.00 in
11:31 66.0 °F 54.3 °F 30.35 in ESE 4.0 mph 5.8 mph 66 % 0.00 in
11:36 66.3 °F 54.2 °F 30.35 in ENE 3.4 mph 6.9 mph 65 % 0.00 in
11:41 66.8 °F 55.9 °F 30.35 in ENE 3.1 mph 5.8 mph 68 % 0.00 in
11:46 66.7 °F 54.1 °F 30.35 in NE 5.0 mph 10.4 mph 64 % 0.00 in
11:56 66.4 °F 55.5 °F 30.34 in ENE 4.8 mph 6.9 mph 68 % 0.00 in
12:01 66.7 °F 54.1 °F 30.33 in ENE 2.9 mph 5.0 mph 64 % 0.00 in
12:07 66.6 °F 55.3 °F 30.33 in ENE 3.8 mph 9.2 mph 67 % 0.00 in
12:12 66.5 °F 55.2 °F 30.33 in ENE 2.8 mph 4.6 mph 67 % 0.00 in
12:17 66.5 °F 53.9 °F 30.33 in NE 3.5 mph 6.9 mph 64 % 0.00 in
12:22 66.8 °F 55.9 °F 30.33 in North 0.9 mph 4.6 mph 68 % 0.00 in
12:27 67.3 °F 56.8 °F 30.33 in ENE 1.9 mph 4.6 mph 69 % 0.00 in
12:32 67.4 °F 55.6 °F 30.33 in North 5.3 mph 8.0 mph 66 % 0.00 in
12:37 67.5 °F 55.7 °F 30.33 in NNE 2.6 mph 4.6 mph 66 % 0.00 in
12:42 67.7 °F 55.9 °F 30.33 in NNE 3.3 mph 8.1 mph 66 % 0.00 in
12:47 67.8 °F 56.0 °F 30.32 in SE 2.6 mph 5.8 mph 66 % 0.00 in
12:52 68.3 °F 57.3 °F 30.32 in ENE 3.1 mph 8.1 mph 68 % 0.00 in
12:57 68.3 °F 54.8 °F 30.31 in ENE 4.7 mph 8.1 mph 62 % 0.00 in
13:02 67.6 °F 55.0 °F 30.31 in ENE 2.8 mph 6.9 mph 64 % 0.00 in
13:07 67.7 °F 55.5 °F 30.31 in NE 5.3 mph 8.1 mph 65 % 0.00 in
13:12 67.3 °F 56.0 °F 30.31 in ENE 3.8 mph 6.9 mph 67 % 0.00 in
13:17 67.6 °F 56.2 °F 30.31 in ENE 2.8 mph 6.9 mph 67 % 0.00 in
13:22 67.7 °F 53.3 °F 30.31 in ENE 3.5 mph 8.1 mph 60 % 0.00 in
13:27 67.5 °F 53.6 °F 30.31 in ENE 0.4 mph 8.1 mph 61 % 0.00 in
13:32 67.6 °F 55.0 °F 30.30 in ENE 2.7 mph 5.0 mph 64 % 0.00 in
13:37 67.6 °F 54.6 °F 30.30 in ENE 1.8 mph 4.0 mph 63 % 0.00 in
13:42 67.9 °F 54.0 °F 30.30 in NE 1.7 mph 6.9 mph 61 % 0.00 in
13:47 67.9 °F 51.6 °F 30.30 in NE 0.7 mph 2.3 mph 56 % 0.00 in
13:52 68.2 °F 54.2 °F 30.31 in ENE 0.3 mph 3.5 mph 61 % 0.00 in
13:57 68.6 °F 52.3 °F 30.30 in ENE 0.4 mph 3.5 mph 56 % 0.00 in
14:02 68.9 °F 53.5 °F 30.30 in ENE 1.2 mph 2.3 mph 58 % 0.00 in
14:07 69.4 °F 54.4 °F 30.30 in Calm   1.2 mph 59 % 0.00 in
14:12 69.9 °F 45.1 °F 30.30 in SSE 2.0 mph 5.0 mph 41 % 0.00 in
14:17 70.6 °F 45.7 °F 30.30 in SE 2.3 mph 7.0 mph 41 % 0.00 in
14:22 70.3 °F 40.6 °F 30.30 in SE 0.4 mph 2.3 mph 34 % 0.00 in
14:27 70.2 °F 42.0 °F 30.30 in SE 3.2 mph 11.0 mph 36 % 0.00 in
14:32 70.1 °F 44.0 °F 30.30 in SE 0.1 mph 3.5 mph 39 % 0.00 in
14:37 70.4 °F 40.7 °F 30.30 in SE 2.2 mph 5.8 mph 34 % 0.00 in
14:42 70.1 °F 41.9 °F 30.29 in SSW 1.8 mph 11.5 mph 36 % 0.00 in
14:48 69.9 °F 43.8 °F 30.29 in WSW 0.5 mph 3.5 mph 39 % 0.00 in
14:53 70.1 °F 39.6 °F 30.29 in SE 4.7 mph 6.0 mph 33 % 0.00 in
14:58 70.4 °F 42.9 °F 30.29 in WSW 0.7 mph 3.5 mph 37 % 0.00 in
15:03 70.7 °F 40.9 °F 30.29 in ESE 3.5 mph 6.9 mph 34 % 0.00 in
15:08 70.9 °F 43.3 °F 30.29 in SE 0.8 mph 7.0 mph 37 % 0.00 in
15:13 70.6 °F 40.1 °F 30.29 in SSE 1.4 mph 4.6 mph 33 % 0.00 in
15:23 69.9 °F 37.0 °F 30.28 in SSE 4.8 mph 9.2 mph 30 % 0.00 in
15:28 68.9 °F 38.6 °F 30.28 in SE 5.0 mph 9.2 mph 33 % 0.00 in
15:33 68.8 °F 39.3 °F 30.28 in SE 2.8 mph 12.0 mph 34 % 0.00 in
15:38 68.5 °F 37.5 °F 30.28 in SSE 8.8 mph 12.0 mph 32 % 0.00 in
15:43 68.4 °F 41.1 °F 30.28 in SSE 5.8 mph 10.0 mph 37 % 0.00 in
15:48 68.3 °F 41.0 °F 30.28 in SSE 1.2 mph 4.0 mph 37 % 0.00 in
15:53 68.5 °F 40.5 °F 30.27 in SSE 2.5 mph 6.0 mph 36 % 0.00 in
15:58 68.8 °F 40.7 °F 30.27 in ESE 3.4 mph 6.9 mph 36 % 0.00 in
16:03 68.8 °F 39.3 °F 30.28 in SE 4.7 mph 8.1 mph 34 % 0.00 in
16:08 68.9 °F 39.4 °F 30.28 in South 8.9 mph 13.8 mph 34 % 0.00 in
16:13 68.5 °F 39.0 °F 30.28 in SE 1.1 mph 4.6 mph 34 % 0.00 in
16:18 68.4 °F 38.2 °F 30.28 in SE 4.3 mph 6.0 mph 33 % 0.00 in
16:20 68.3 °F 38.8 °F 30.27 in South 1.6 mph 5.8 mph 34 % 0.00 in
16:25 68.0 °F 40.0 °F 30.27 in ESE 3.5 mph 5.8 mph 36 % 0.00 in
16:30 67.6 °F 37.5 °F 30.27 in SE 5.9 mph 9.0 mph 33 % 0.00 in
16:35 67.1 °F 39.9 °F 30.27 in SSE 3.7 mph 6.9 mph 37 % 0.00 in
16:40 66.9 °F 39.1 °F 30.27 in SE 1.2 mph 8.1 mph 36 % 0.00 in
16:45 66.7 °F 38.2 °F 30.26 in SE 6.2 mph 10.4 mph 35 % 0.00 in
16:50 66.3 °F 39.9 °F 30.26 in SSE 1.1 mph 2.3 mph 38 % 0.00 in
16:55 66.1 °F 39.1 °F 30.26 in SSW 1.3 mph 3.5 mph 37 % 0.00 in
17:00 66.1 °F 38.4 °F 30.26 in SSE 5.2 mph 9.2 mph 36 % 0.00 in
17:05 65.6 °F 38.6 °F 30.26 in SE 3.2 mph 9.2 mph 37 % 0.00 in
17:10 65.3 °F 38.3 °F 30.26 in SE 4.7 mph 11.5 mph 37 % 0.00 in
17:15 64.9 °F 38.0 °F 30.26 in SSE 2.4 mph 11.5 mph 37 % 0.00 in
17:20 64.7 °F 39.2 °F 30.26 in SSE 1.7 mph 6.0 mph 39 % 0.00 in
17:25 64.6 °F 39.1 °F 30.26 in SSW 1.9 mph 3.5 mph 39 % 0.00 in
17:30 64.3 °F 38.1 °F 30.26 in SSW 3.3 mph 4.6 mph 38 % 0.00 in
17:35 64.2 °F 37.4 °F 30.26 in ESE 7.0 mph 9.2 mph 37 % 0.00 in
17:40 63.9 °F 39.1 °F 30.25 in SSE 3.5 mph 8.1 mph 40 % 0.00 in
17:45 63.6 °F 39.5 °F 30.25 in SSW 1.7 mph 4.0 mph 41 % 0.00 in
17:50 63.5 °F 38.7 °F 30.25 in SE 2.4 mph 4.6 mph 40 % 0.00 in
17:55 63.4 °F 39.9 °F 30.25 in West 1.9 mph 3.5 mph 42 % 0.00 in
18:00 63.3 °F 38.6 °F 30.25 in South 1.1 mph 3.5 mph 40 % 0.00 in
18:05 63.0 °F 38.3 °F 30.25 in SE 3.7 mph 6.9 mph 40 % 0.00 in
18:10 62.9 °F 38.2 °F 30.25 in SSE 1.0 mph 6.0 mph 40 % 0.00 in
18:15 62.8 °F 38.7 °F 30.25 in Calm   7.0 mph 41 % 0.00 in
18:20 62.6 °F 39.2 °F 30.25 in SE 6.0 mph 12.0 mph 42 % 0.00 in
18:25 62.4 °F 38.4 °F 30.25 in SE 5.0 mph 12.0 mph 41 % 0.00 in
18:30 62.1 °F 38.7 °F 30.26 in SSE 2.0 mph 10.0 mph 42 % 0.00 in
18:35 62.0 °F 38.6 °F 30.26 in SSE 7.7 mph 8.1 mph 42 % 0.00 in
18:40 61.8 °F 39.6 °F 30.26 in Calm   3.5 mph 44 % 0.00 in
18:45 61.8 °F 39.1 °F 30.27 in SSW 0.6 mph 3.5 mph 43 % 0.00 in
18:50 61.7 °F 39.0 °F 30.27 in SW 2.5 mph 3.5 mph 43 % 0.00 in
18:55 61.6 °F 38.9 °F 30.26 in SW 0.8 mph 3.5 mph 43 % 0.00 in
19:00 61.3 °F 39.2 °F 30.26 in Calm   2.3 mph 44 % 0.00 in
19:05 61.1 °F 38.4 °F 30.26 in SSE 3.4 mph 8.1 mph 43 % 0.00 in
19:10 60.9 °F 38.2 °F 30.26 in SE 3.2 mph 5.0 mph 43 % 0.00 in
19:16 60.6 °F 38.6 °F 30.26 in SE 0.2 mph 3.5 mph 44 % 0.00 in
19:21 60.3 °F 38.3 °F 30.27 in SSE 1.0 mph 6.0 mph 44 % 0.00 in
19:26 60.0 °F 38.0 °F 30.27 in SE 2.0 mph 8.0 mph 44 % 0.00 in
19:31 59.8 °F 37.8 °F 30.26 in Calm   5.0 mph 44 % 0.00 in
19:36 59.5 °F 38.1 °F 30.26 in SE 0.2 mph   45 % 0.00 in
19:41 59.4 °F 38.6 °F 30.26 in Calm   3.0 mph 46 % 0.00 in
19:46 59.2 °F 38.4 °F 30.26 in SE 1.0 mph 5.0 mph 46 % 0.00 in
19:51 58.9 °F 38.2 °F 30.25 in SE 3.0 mph 6.0 mph 46 % 0.00 in
19:56 58.7 °F 38.5 °F 30.25 in SE 2.0 mph 6.0 mph 47 % 0.00 in
20:01 58.5 °F 38.9 °F 30.25 in SE 1.1 mph 3.5 mph 48 % 0.00 in
20:06 58.3 °F 39.2 °F 30.26 in SE 0.5 mph 2.3 mph 49 % 0.00 in
20:11 58.2 °F 39.6 °F 30.26 in Calm     50 % 0.00 in
20:16 58.1 °F 39.5 °F 30.26 in WSW 0.4 mph 3.0 mph 50 % 0.00 in
20:21 57.9 °F 39.9 °F 30.25 in SSW 1.6 mph 3.5 mph 51 % 0.00 in
20:26 57.7 °F 40.2 °F 30.25 in Calm   1.2 mph 52 % 0.00 in
20:31 57.5 °F 40.0 °F 30.26 in Calm   2.3 mph 52 % 0.00 in
20:36 57.4 °F 40.4 °F 30.26 in SE 0.2 mph 1.2 mph 53 % 0.00 in
20:41 57.2 °F 40.2 °F 30.26 in Calm     53 % 0.00 in
20:46 57.1 °F 40.6 °F 30.26 in SE 0.2 mph 1.2 mph 54 % 0.00 in
20:51 57.0 °F 41.0 °F 30.25 in SE 0.3 mph 2.0 mph 55 % 0.00 in
20:56 56.9 °F 40.9 °F 30.25 in Calm     55 % 0.00 in
21:01 56.8 °F 40.8 °F 30.25 in SE 0.8 mph 2.3 mph 55 % 0.00 in
21:06 56.7 °F 41.2 °F 30.25 in SE 0.1 mph 2.3 mph 56 % 0.00 in
21:11 56.6 °F 41.1 °F 30.25 in SE 1.0 mph 3.0 mph 56 % 0.00 in
21:16 56.6 °F 42.0 °F 30.25 in Calm   1.2 mph 58 % 0.00 in
21:21 56.5 °F 42.3 °F 30.25 in Calm     59 % 0.00 in
21:26 56.4 °F 41.3 °F 30.25 in SE 0.2 mph 1.2 mph 57 % 0.00 in
21:31 56.4 °F 41.3 °F 30.25 in Calm     57 % 0.00 in
21:36 56.3 °F 41.7 °F 30.25 in Calm   1.2 mph 58 % 0.00 in
21:41 56.3 °F 41.7 °F 30.25 in SE 0.2 mph 1.2 mph 58 % 0.00 in
21:46 56.2 °F 41.6 °F 30.25 in SE 1.3 mph 1.3 mph 58 % 0.00 in
21:51 56.2 °F 41.2 °F 30.25 in SE 2.9 mph 4.6 mph 57 % 0.00 in
21:56 56.2 °F 41.6 °F 30.24 in SE 1.3 mph 4.6 mph 58 % 0.00 in
22:02 56.2 °F 42.1 °F 30.24 in ESE 1.2 mph 3.0 mph 59 % 0.00 in
22:07 56.1 °F 41.5 °F 30.24 in SE 1.3 mph 3.5 mph 58 % 0.00 in
22:12 56.1 °F 42.0 °F 30.24 in SE 2.6 mph 3.5 mph 59 % 0.00 in
22:17 56.1 °F 41.5 °F 30.24 in SE 3.5 mph 4.6 mph 58 % 0.00 in
22:23 56.0 °F 41.9 °F 30.24 in Calm   1.0 mph 59 % 0.00 in
22:28 56.1 °F 42.0 °F 30.24 in SSE 0.2 mph 2.0 mph 59 % 0.00 in
22:33 56.0 °F 41.9 °F 30.24 in Calm   2.3 mph 59 % 0.00 in
22:38 56.0 °F 41.9 °F 30.24 in Calm   1.2 mph 59 % 0.00 in
22:43 56.0 °F 41.9 °F 30.24 in SSE 0.2 mph 1.2 mph 59 % 0.00 in
22:48 56.1 °F 42.4 °F 30.24 in Calm     60 % 0.00 in
22:53 56.1 °F 42.4 °F 30.24 in Calm     60 % 0.00 in
22:58 56.2 °F 42.1 °F 30.24 in SSE 0.5 mph 2.3 mph 59 % 0.00 in
23:03 56.2 °F 42.1 °F 30.23 in SSE 0.6 mph 2.3 mph 59 % 0.00 in
23:08 56.2 °F 42.1 °F 30.23 in ESE 0.8 mph 2.3 mph 59 % 0.00 in
23:13 56.3 °F 42.1 °F 30.23 in SSE 1.4 mph 3.5 mph 59 % 0.00 in
23:18 56.3 °F 42.1 °F 30.23 in SSE 0.4 mph 2.3 mph 59 % 0.00 in
23:23 56.4 °F 42.7 °F 30.23 in SSE 0.2 mph 2.0 mph 60 % 0.00 in
23:28 56.4 °F 42.2 °F 30.23 in SSE 1.2 mph 3.5 mph 59 % 0.00 in
23:33 56.4 °F 42.2 °F 30.23 in Calm   1.2 mph 59 % 0.00 in
23:38 56.5 °F 42.8 °F 30.23 in SSE 0.2 mph 1.0 mph 60 % 0.00 in
23:43 56.4 °F 42.7 °F 30.23 in WSW 0.6 mph 2.3 mph 60 % 0.00 in
23:48 56.4 °F 42.2 °F 30.23 in SSE 0.1 mph 1.2 mph 59 % 0.00 in
23:53 56.4 °F 42.7 °F 30.23 in Calm   2.3 mph 60 % 0.00 in
23:58 56.5 °F 42.8 °F 30.23 in Calm   1.2 mph 60 % 0.00 in
Crab Meadow Weather
Compliments of Weather Underground - 3 mb

Script developed by  Jim McMurry - jmcmurry@mwt.net Adapted for the template by  Wim van der Kuil - Leuven-Template.eu

Weather Terms: Wind Chill - An apparent temperature that describes the combined effect of wind and low temperature on exposed skin.